Flag for Canada Weather past 2 weeks in Langley, British Columbia, Canada

Now
54 °F

Cool.


Feels Like: 54 °F
Forecast: 35 / 57 °F
Wind: 1 mph from West

Location: P. Meadows Coastal Station

Current Time: Mar 6, 2015 at 12:56:06 PM

Latest Report: Mar 6, 2015 at 12:00 PM


Visibility: N/A

Pressure: 30.43 "Hg

Humidity: 49%

Dew point: 35 °F

Location of LangleyLocation

Historic Weather in Langley — Graph

°F

Langley temperature yesterday

Maximum temperature yesterday: 57 °F (at 4:00 PM)
Minimum temperature yesterday: 31 °F (at 1:00 AM)
Average temperature yesterday: 42 °F

Past Weeks' High & Low Weather Summary

 TemperatureHumidityPressure
High57 °F (Feb 27, 3:00 PM)100% (Feb 21, 4:00 AM)30.50 "Hg (Feb 21, 4:00 AM)
Low26 °F (Mar 4, 4:00 AM)19% (Mar 3, 12:00 PM)29.77 "Hg (Feb 27, 7:00 AM)
Average42 °F74%30.24 "Hg
* Reported Feb 19 11:00 AM — Mar 6 11:00 AM, Langley, Weather by CustomWeather, © 2015

Note: Actual official high and low records may vary slightly from our data, if they occured in-between our weather recording intervals... More about our weather records

Advertising

Langley weather history for previous 24 hours

 ConditionsComfort  
Time TempWeatherWind HumidityBarometerVisibility
11:00 AM
Fri, Mar 6
50 °FCool.1 mph65%30.44 "HgN/A
10:00 AM46 °FCool.No wind75%30.45 "HgN/A
9:00 AM42 °FQuite cool.1 mph82%30.44 "HgN/A
8:00 AM39 °FChilly.1 mph91%30.42 "HgN/A
7:00 AM37 °FChilly.No wind93%30.41 "HgN/A
6:00 AM37 °FChilly.1 mph91%30.41 "HgN/A
5:00 AM36 °FChilly.1 mph93%30.41 "HgN/A
4:00 AM37 °FChilly.2 mph89%30.41 "HgN/A
3:00 AM40 °FChilly.2 mph86%30.41 "HgN/A
2:00 AM42 °FQuite cool.No wind76%30.41 "HgN/A
1:00 AM42 °FQuite cool.No wind81%30.41 "HgN/A
12:00 AM42 °FQuite cool.2 mph77%30.41 "HgN/A
11:00 PM
Thu, Mar 5
43 °FQuite cool.1 mph78%30.41 "HgN/A
10:00 PM42 °FQuite cool.No wind78%30.41 "HgN/A
9:00 PM43 °FQuite cool.No wind72%30.40 "HgN/A
8:00 PM46 °FCool.2 mph62%30.38 "HgN/A
7:00 PM50 °FCool.2 mph50%30.38 "HgN/A
6:00 PM52 °FCool.3 mph47%30.37 "HgN/A
5:00 PM54 °FCool.5 mph41%30.37 "HgN/A
4:00 PM57 °FRefreshingly cool.2 mph33%30.37 "HgN/A
3:00 PM55 °FRefreshingly cool.1 mph36%30.36 "HgN/A
2:00 PM54 °FCool.1 mph38%30.37 "HgN/A
1:00 PM52 °FCool.2 mph41%30.38 "HgN/A
12:00 PM50 °FCool.1 mph45%30.38 "HgN/A
Weather by CustomWeather, © 2015

See weather overviewHow to use our weather pages